| time (UTC) | temp F | wind direction | speed MPH | gust MPH | rain 1hr in | rain 24hr in | rain mn in | humidity % | barometer mb |
| 20260903045655 | 66 | 39 | 0.0 | 1.0 | 0.07 | 0.01 | 0.01 | 98 | 1022.2 |
| 20260903045152 | 66 | 74 | 1.0 | 1.0 | 0.00 | 0.00 | 0.00 | 98 | 1021.9 |
| 20260903044647 | 66 | 114 | 0.0 | 0.0 | 0.00 | 0.00 | 0.00 | 98 | 1021.6 |
| 20260903044137 | 66 | 118 | 0.0 | 0.0 | 0.00 | 0.00 | 0.00 | 98 | 1021.6 |
| 20260903043634 | 66 | 92 | 1.0 | 1.0 | 0.00 | 0.00 | 0.00 | 98 | 1022.0 |
| 20260903043133 | 66 | 109 | 0.0 | 0.0 | 0.00 | 0.00 | 0.00 | 98 | 1021.8 |
| 20260903042632 | 66 | 108 | 0.0 | 0.0 | 0.00 | 0.00 | 0.00 | 98 | 1021.5 |
| 20260903042128 | 66 | 114 | 0.0 | 0.0 | 0.00 | 0.00 | 0.00 | 98 | 1021.3 |
| 20260903041624 | 66 | 139 | 0.0 | 0.0 | 0.00 | 0.00 | 0.00 | 98 | 1021.5 |
| 20260903041120 | 66 | 115 | 0.0 | 0.0 | 0.00 | 0.00 | 0.00 | 98 | 1021.8 |
| 20260903040619 | 66 | 104 | 0.0 | 0.0 | 0.00 | 0.00 | 0.00 | 98 | 1021.8 |
| 20260903040115 | 66 | 101 | 0.0 | 0.0 | 0.00 | 0.00 | 0.00 | 98 | 1022.0 |
| 20260903035610 | 66 | 118 | 0.0 | 0.0 | 0.00 | 0.35 | 0.35 | 98 | 1022.0 |
| 20260903035106 | 66 | 113 | 0.0 | 0.0 | 0.00 | 0.35 | 0.35 | 98 | 1021.9 |
| 20260903034601 | 66 | 108 | 0.0 | 0.0 | 0.00 | 0.35 | 0.35 | 98 | 1021.8 |
| 20260903034056 | 66 | 101 | 0.0 | 0.0 | 0.00 | 0.35 | 0.35 | 98 | 1022.1 |
| 20260903033551 | 66 | 108 | 0.0 | 0.0 | 0.00 | 0.35 | 0.35 | 98 | 1021.8 |
| 20260903033046 | 66 | 103 | 0.0 | 0.0 | 0.00 | 0.35 | 0.35 | 98 | 1021.6 |
| 20260903032541 | 66 | 118 | 0.0 | 0.0 | 0.00 | 0.35 | 0.35 | 98 | 1021.5 |
| 20260903032037 | 66 | 120 | 0.0 | 0.0 | 0.00 | 0.35 | 0.35 | 98 | 1021.3 |
| 20260903031536 | 66 | 122 | 0.0 | 0.0 | 0.00 | 0.35 | 0.35 | 98 | 1021.5 |
| 20260903031031 | 66 | 124 | 0.0 | 0.0 | 0.00 | 0.35 | 0.35 | 98 | 1021.5 |
| 20260903030527 | 66 | 124 | 0.0 | 0.0 | 0.00 | 0.35 | 0.35 | 98 | 1021.6 |
| 20260903030023 | 65 | 116 | 0.0 | 0.0 | 0.00 | 0.35 | 0.35 | 98 | 1021.8 |
| 20260903025518 | 65 | 114 | 0.0 | 0.0 | 0.00 | 0.35 | 0.35 | 98 | 1022.2 |
| 20260903025014 | 65 | 119 | 0.0 | 0.0 | 0.00 | 0.35 | 0.35 | 97 | 1022.0 |
| 20260903024508 | 65 | 109 | 0.0 | 0.0 | 0.00 | 0.35 | 0.35 | 97 | 1022.1 |
| 20260903024008 | 65 | 109 | 0.0 | 0.0 | 0.00 | 0.35 | 0.35 | 97 | 1022.3 |
| 20260903023503 | 65 | 133 | 0.0 | 0.0 | 0.00 | 0.35 | 0.35 | 97 | 1022.0 |
| 20260903022959 | 65 | 113 | 0.0 | 0.0 | 0.00 | 0.35 | 0.35 | 97 | 1022.1 |
| 20260903022458 | 65 | 126 | 0.0 | 0.0 | 0.00 | 0.35 | 0.35 | 97 | 1022.1 |
| 20260903021955 | 65 | 123 | 0.0 | 0.0 | 0.00 | 0.35 | 0.35 | 97 | 1022.3 |
| 20260903021451 | 65 | 115 | 0.0 | 0.0 | 0.00 | 0.35 | 0.35 | 97 | 1022.2 |
| 20260903020947 | 65 | 109 | 0.0 | 0.0 | 0.00 | 0.35 | 0.35 | 97 | 1022.3 |
| 20260903020442 | 65 | 113 | 0.0 | 0.0 | 0.00 | 0.35 | 0.35 | 97 | 1022.4 |
| 20260903015937 | 65 | 109 | 0.0 | 0.0 | 0.00 | 0.35 | 0.35 | 97 | 1022.3 |
| 20260903015432 | 65 | 116 | 0.0 | 0.0 | 0.00 | 0.35 | 0.35 | 97 | 1022.2 |
| 20260903014927 | 65 | 111 | 0.0 | 0.0 | 0.00 | 0.35 | 0.35 | 97 | 1022.1 |
| 20260903014426 | 65 | 110 | 0.0 | 0.0 | 0.00 | 0.35 | 0.35 | 97 | 1022.2 |
| 20260903013921 | 65 | 116 | 0.0 | 0.0 | 0.00 | 0.35 | 0.35 | 97 | 1022.5 |
| 20260903013421 | 65 | 123 | 0.0 | 0.0 | 0.00 | 0.35 | 0.35 | 97 | 1022.1 |
| 20260903012915 | 65 | 119 | 0.0 | 0.0 | 0.00 | 0.35 | 0.35 | 97 | 1022.4 |
| 20260903012415 | 65 | 107 | 0.0 | 0.0 | 0.00 | 0.35 | 0.35 | 97 | 1022.5 |
| 20260903011913 | 65 | 110 | 0.0 | 0.0 | 0.00 | 0.35 | 0.35 | 97 | 1022.9 |
| 20260903011408 | 65 | 119 | 0.0 | 0.0 | 0.00 | 0.35 | 0.35 | 97 | 1022.6 |
| 20260903010903 | 65 | 110 | 0.0 | 0.0 | 0.00 | 0.35 | 0.35 | 97 | 1022.9 |
| 20260903010359 | 64 | 109 | 0.0 | 0.0 | 0.00 | 0.35 | 0.35 | 97 | 1022.8 |
| 20260903005856 | 64 | 113 | 0.0 | 0.0 | 0.00 | 0.35 | 0.35 | 97 | 1022.9 |
| 20260903005352 | 64 | 113 | 0.0 | 0.0 | 0.00 | 0.35 | 0.35 | 97 | 1022.4 |
| 20260903004848 | 64 | 112 | 0.0 | 0.0 | 0.00 | 0.35 | 0.35 | 97 | 1023.0 |
| 20260903004343 | 64 | 112 | 0.0 | 0.0 | 0.00 | 0.35 | 0.35 | 97 | 1022.8 |
| 20260903003838 | 64 | 116 | 0.0 | 0.0 | 0.00 | 0.35 | 0.35 | 97 | 1023.0 |
| 20260903003333 | 64 | 107 | 0.0 | 0.0 | 0.00 | 0.35 | 0.35 | 97 | 1023.0 |
| 20260903002832 | 64 | 110 | 0.0 | 0.0 | 0.00 | 0.35 | 0.35 | 97 | 1022.9 |
| 20260903002328 | 64 | 108 | 0.0 | 0.0 | 0.00 | 0.35 | 0.35 | 97 | 1022.7 |
| 20260903001822 | 64 | 108 | 0.0 | 0.0 | 0.00 | 0.35 | 0.35 | 97 | 1022.5 |
| 20260903001318 | 64 | 97 | 0.0 | 1.0 | 0.00 | 0.35 | 0.35 | 97 | 1022.3 |
| 20260903000817 | 64 | 136 | 1.0 | 1.0 | 0.00 | 0.35 | 0.35 | 97 | 1022.1 |
| 20260903000312 | 64 | 129 | 0.0 | 1.0 | 0.00 | 0.35 | 0.35 | 97 | 1021.7 |
| 20260902235810 | 64 | 135 | 1.0 | 1.0 | 0.00 | 0.35 | 0.35 | 97 | 1022.0 |
| 20260902235306 | 65 | 116 | 0.0 | 0.0 | 0.00 | 0.35 | 0.35 | 97 | 1022.2 |
| 20260902234759 | 65 | 116 | 0.0 | 0.0 | 0.00 | 0.35 | 0.35 | 97 | 1022.0 |
| 20260902234254 | 65 | 116 | 0.0 | 1.0 | 0.00 | 0.35 | 0.35 | 97 | 1021.8 |
| 20260902233753 | 65 | 120 | 0.0 | 1.0 | 0.00 | 0.35 | 0.35 | 97 | 1022.2 |
| 20260902233253 | 65 | 127 | 1.0 | 1.0 | 0.00 | 0.35 | 0.35 | 97 | 1022.1 |
| 20260902232752 | 65 | 112 | 0.0 | 1.0 | 0.00 | 0.35 | 0.35 | 97 | 1022.3 |
| 20260902232246 | 65 | 119 | 1.0 | 1.0 | 0.00 | 0.35 | 0.35 | 97 | 1022.3 |
| 20260902231746 | 65 | 124 | 1.0 | 2.0 | 0.00 | 0.35 | 0.35 | 97 | 1022.5 |
| 20260902231241 | 65 | 103 | 0.0 | 2.0 | 0.00 | 0.35 | 0.35 | 97 | 1022.5 |
| 20260902230741 | 65 | 118 | 0.0 | 0.0 | 0.00 | 0.35 | 0.35 | 97 | 1022.5 |
| 20260902230240 | 65 | 115 | 0.0 | 1.0 | 0.00 | 0.35 | 0.35 | 97 | 1022.8 |
| 20260902225735 | 65 | 111 | 0.0 | 1.0 | 0.00 | 0.35 | 0.35 | 97 | 1022.6 |
| 20260902225230 | 65 | 114 | 1.0 | 1.0 | 0.00 | 0.35 | 0.35 | 97 | 1022.9 |
| 20260902224729 | 65 | 120 | 0.0 | 1.0 | 0.00 | 0.35 | 0.35 | 97 | 1023.0 |
| 20260902224224 | 65 | 120 | 1.0 | 1.0 | 0.00 | 0.35 | 0.35 | 97 | 1023.1 |
| 20260902223720 | 65 | 111 | 0.0 | 1.0 | 0.00 | 0.35 | 0.35 | 97 | 1023.2 |
| 20260902223219 | 65 | 107 | 0.0 | 1.0 | 0.00 | 0.35 | 0.35 | 97 | 1023.2 |
| 20260902222718 | 65 | 132 | 1.0 | 2.0 | 0.00 | 0.35 | 0.35 | 97 | 1023.2 |
| 20260902222213 | 65 | 117 | 0.0 | 0.0 | 0.00 | 0.35 | 0.35 | 97 | 1023.2 |
| 20260902221708 | 65 | 135 | 0.0 | 0.0 | 0.00 | 0.35 | 0.35 | 97 | 1023.8 |
| 20260902221207 | 65 | 112 | 0.0 | 0.0 | 0.00 | 0.35 | 0.35 | 97 | 1023.6 |
| 20260902220702 | 65 | 102 | 0.0 | 0.0 | 0.00 | 0.35 | 0.35 | 97 | 1023.8 |
| 20260902220157 | 65 | 114 | 0.0 | 0.0 | 0.00 | 0.35 | 0.35 | 97 | 1023.5 |
| 20260902215653 | 65 | 132 | 0.0 | 0.0 | 0.00 | 0.35 | 0.35 | 96 | 1023.5 |
| 20260902215148 | 65 | 113 | 0.0 | 0.0 | 0.00 | 0.35 | 0.35 | 96 | 1023.4 |
| 20260902214643 | 65 | 100 | 0.0 | 0.0 | 0.00 | 0.35 | 0.35 | 96 | 1023.4 |
| 20260902214142 | 65 | 115 | 0.0 | 0.0 | 0.00 | 0.35 | 0.35 | 96 | 1023.3 |
| 20260902213637 | 65 | 122 | 0.0 | 0.0 | 0.00 | 0.35 | 0.35 | 96 | 1023.3 |
| 20260902213137 | 65 | 120 | 0.0 | 0.0 | 0.00 | 0.35 | 0.35 | 96 | 1023.4 |
| 20260902212632 | 65 | 123 | 0.0 | 1.0 | 0.00 | 0.35 | 0.35 | 96 | 1023.2 |
| 20260902212128 | 65 | 106 | 1.0 | 1.0 | 0.00 | 0.35 | 0.35 | 96 | 1023.3 |
| 20260902211625 | 65 | 123 | 0.0 | 1.0 | 0.00 | 0.35 | 0.35 | 96 | 1023.1 |
| 20260902211119 | 65 | 116 | 0.0 | 0.0 | 0.00 | 0.35 | 0.35 | 96 | 1023.1 |
| 20260902210619 | 65 | 115 | 0.0 | 0.0 | 0.00 | 0.35 | 0.35 | 96 | 1023.4 |
| 20260902210114 | 64 | 112 | 0.0 | 0.0 | 0.00 | 0.35 | 0.35 | 96 | 1023.3 |
| 20260902205613 | 65 | 107 | 0.0 | 0.0 | 0.00 | 0.35 | 0.35 | 96 | 1023.3 |
| 20260902205109 | 64 | 109 | 0.0 | 1.0 | 0.00 | 0.35 | 0.35 | 96 | 1023.4 |
| 20260902204608 | 64 | 110 | 0.0 | 1.0 | 0.00 | 0.35 | 0.35 | 96 | 1023.3 |
| 20260902204103 | 64 | 109 | 0.0 | 1.0 | 0.00 | 0.35 | 0.35 | 96 | 1023.2 |
| 20260902203559 | 65 | 108 | 0.0 | 1.0 | 0.00 | 0.35 | 0.35 | 96 | 1023.0 |
| 20260902203058 | 65 | 123 | 0.0 | 2.0 | 0.00 | 0.35 | 0.35 | 96 | 1023.0 |
| 20260902202554 | 65 | 114 | 0.0 | 0.0 | 0.00 | 0.35 | 0.35 | 96 | 1022.8 |
| 20260902202050 | 65 | 123 | 0.0 | 1.0 | 0.00 | 0.35 | 0.35 | 96 | 1023.0 |
| 20260902201546 | 65 | 112 | 0.0 | 1.0 | 0.00 | 0.35 | 0.35 | 96 | 1022.9 |
| 20260902201044 | 65 | 102 | 0.0 | 2.0 | 0.00 | 0.35 | 0.35 | 96 | 1023.1 |
| 20260902200540 | 65 | 117 | 0.0 | 1.0 | 0.00 | 0.35 | 0.35 | 96 | 1023.2 |
| 20260902200036 | 65 | 103 | 1.0 | 2.0 | 0.00 | 0.35 | 0.35 | 96 | 1022.8 |
| 20260902195532 | 65 | 91 | 2.0 | 2.0 | 0.00 | 0.35 | 0.35 | 96 | 1022.8 |
| 20260902195031 | 65 | 157 | 1.0 | 3.0 | 0.00 | 0.35 | 0.35 | 96 | 1022.9 |
| 20260902194530 | 65 | 133 | 3.0 | 3.0 | 0.00 | 0.35 | 0.35 | 95 | 1023.1 |
| 20260902194026 | 65 | 117 | 0.0 | 1.0 | 0.05 | 0.35 | 0.35 | 95 | 1023.2 |
| 20260902193522 | 65 | 126 | 1.0 | 2.0 | 0.12 | 0.35 | 0.35 | 95 | 1023.5 |
| 20260902193021 | 65 | 102 | 0.0 | 1.0 | 0.12 | 0.34 | 0.34 | 95 | 1023.9 |
| 20260902192520 | 65 | 103 | 0.0 | 1.0 | 0.05 | 0.33 | 0.33 | 95 | 1023.6 |
| 20260902192019 | 66 | 110 | 0.0 | 0.0 | 0.00 | 0.32 | 0.32 | 95 | 1023.8 |
| 20260902191514 | 65 | 76 | 1.0 | 1.0 | 0.00 | 0.32 | 0.32 | 95 | 1023.6 |
| 20260902191009 | 65 | 126 | 1.0 | 1.0 | 0.12 | 0.32 | 0.32 | 95 | 1023.6 |
| 20260902190504 | 65 | 120 | 0.0 | 1.0 | 0.28 | 0.31 | 0.31 | 95 | 1023.6 |
| 20260902185959 | 65 | 108 | 0.0 | 1.0 | 0.50 | 0.30 | 0.30 | 95 | 1024.1 |
| 20260902185455 | 65 | 129 | 1.0 | 1.0 | 0.54 | 0.26 | 0.26 | 95 | 1024.0 |
| 20260902184950 | 66 | 145 | 1.0 | 2.0 | 0.83 | 0.22 | 0.22 | 95 | 1024.2 |
| 20260902184446 | 66 | 74 | 0.0 | 0.0 | 0.83 | 0.16 | 0.16 | 94 | 1024.5 |
| 20260902183941 | 67 | 82 | 2.0 | 2.0 | 0.12 | 0.04 | 0.04 | 93 | 1024.6 |
| 20260902183437 | 67 | 100 | 0.0 | 1.0 | 0.00 | 0.02 | 0.02 | 93 | 1024.6 |
| 20260902182933 | 67 | 100 | 0.0 | 1.0 | 0.00 | 0.02 | 0.02 | 92 | 1023.9 |
| 20260902182430 | 67 | 127 | 0.0 | 1.0 | 0.00 | 0.02 | 0.02 | 92 | 1023.6 |
| 20260902181926 | 67 | 127 | 1.0 | 1.0 | 0.00 | 0.02 | 0.02 | 92 | 1023.5 |
| 20260902181421 | 67 | 106 | 1.0 | 2.0 | 0.00 | 0.02 | 0.02 | 92 | 1023.4 |
| 20260902180921 | 67 | 121 | 2.0 | 2.0 | 0.00 | 0.02 | 0.02 | 92 | 1023.6 |
| 20260902180416 | 67 | 103 | 2.0 | 3.0 | 0.00 | 0.02 | 0.02 | 91 | 1023.5 |
| 20260902175912 | 67 | 128 | 1.0 | 2.0 | 0.00 | 0.02 | 0.02 | 91 | 1023.6 |
| 20260902175406 | 67 | 135 | 2.0 | 2.0 | 0.00 | 0.02 | 0.02 | 91 | 1023.9 |
| 20260902174901 | 68 | 143 | 2.0 | 3.0 | 0.00 | 0.02 | 0.02 | 91 | 1023.6 |
| 20260902174359 | 68 | 109 | 2.0 | 3.0 | 0.00 | 0.02 | 0.02 | 91 | 1024.1 |
| 20260902173849 | 68 | 129 | 1.0 | 3.0 | 0.00 | 0.02 | 0.02 | 90 | 1023.9 |
| 20260902173348 | 68 | 138 | 1.0 | 3.0 | 0.00 | 0.02 | 0.02 | 91 | 1024.0 |
| 20260902172843 | 67 | 131 | 2.0 | 3.0 | 0.00 | 0.02 | 0.02 | 92 | 1023.8 |
| 20260902172342 | 67 | 125 | 2.0 | 3.0 | 0.00 | 0.02 | 0.02 | 93 | 1023.6 |
| 20260902171838 | 67 | 125 | 1.0 | 2.0 | 0.00 | 0.02 | 0.02 | 93 | 1023.6 |
| 20260902171333 | 67 | 127 | 0.0 | 1.0 | 0.00 | 0.02 | 0.02 | 93 | 1024.0 |
| 20260902170829 | 67 | 140 | 1.0 | 1.0 | 0.00 | 0.02 | 0.02 | 93 | 1024.0 |
| 20260902170324 | 67 | 109 | 0.0 | 1.0 | 0.00 | 0.02 | 0.02 | 92 | 1024.0 |
| 20260902165820 | 67 | 113 | 0.0 | 1.0 | 0.00 | 0.02 | 0.02 | 93 | 1024.0 |
| 20260902165319 | 67 | 110 | 1.0 | 2.0 | 0.00 | 0.02 | 0.02 | 92 | 1024.3 |
| 20260902164814 | 67 | 108 | 1.0 | 1.0 | 0.00 | 0.02 | 0.02 | 92 | 1024.2 |
| 20260902164308 | 67 | 98 | 0.0 | 1.0 | 0.00 | 0.02 | 0.02 | 92 | 1024.3 |
| 20260902163758 | 67 | 108 | 0.0 | 1.0 | 0.00 | 0.02 | 0.02 | 92 | 1024.3 |
| 20260902163257 | 67 | 107 | 0.0 | 1.0 | 0.00 | 0.02 | 0.02 | 92 | 1024.2 |
| 20260902162755 | 67 | 135 | 1.0 | 1.0 | 0.00 | 0.02 | 0.02 | 92 | 1024.4 |
| 20260902162251 | 67 | 104 | 0.0 | 2.0 | 0.00 | 0.02 | 0.02 | 92 | 1024.1 |
| 20260902161745 | 67 | 117 | 1.0 | 1.0 | 0.00 | 0.02 | 0.02 | 92 | 1024.1 |
| 20260902161241 | 67 | 94 | 0.0 | 1.0 | 0.00 | 0.02 | 0.02 | 92 | 1024.2 |
| 20260902160738 | 67 | 113 | 0.0 | 1.0 | 0.00 | 0.02 | 0.02 | 92 | 1024.2 |
| 20260902160237 | 67 | 92 | 1.0 | 1.0 | 0.00 | 0.02 | 0.02 | 92 | 1024.4 |
| 20260902155735 | 67 | 111 | 0.0 | 1.0 | 0.00 | 0.02 | 0.02 | 92 | 1024.5 |
| 20260902155234 | 67 | 102 | 0.0 | 1.0 | 0.00 | 0.02 | 0.02 | 92 | 1024.1 |
| 20260902154730 | 67 | 117 | 0.0 | 1.0 | 0.00 | 0.02 | 0.02 | 93 | 1024.1 |
| 20260902154230 | 67 | 111 | 0.0 | 2.0 | 0.00 | 0.02 | 0.02 | 93 | 1024.5 |
| 20260902153724 | 67 | 126 | 1.0 | 2.0 | 0.00 | 0.02 | 0.02 | 93 | 1024.0 |
| 20260902153224 | 68 | 140 | 1.0 | 1.0 | 0.00 | 0.02 | 0.02 | 92 | 1024.4 |
| 20260902152720 | 68 | 83 | 1.0 | 1.0 | 0.00 | 0.02 | 0.02 | 92 | 1024.3 |
| 20260902152216 | 67 | 110 | 0.0 | 2.0 | 0.00 | 0.02 | 0.02 | 93 | 1024.3 |
| 20260902151711 | 67 | 113 | 1.0 | 2.0 | 0.00 | 0.02 | 0.02 | 93 | 1024.2 |
| 20260902151206 | 68 | 127 | 0.0 | 2.0 | 0.00 | 0.02 | 0.02 | 93 | 1024.4 |
| 20260902150701 | 67 | 122 | 0.0 | 1.0 | 0.00 | 0.02 | 0.02 | 93 | 1024.4 |
| 20260902150157 | 67 | 118 | 1.0 | 2.0 | 0.00 | 0.02 | 0.02 | 94 | 1024.5 |
| 20260902145656 | 66 | 78 | 1.0 | 1.0 | 0.00 | 0.02 | 0.02 | 94 | 1024.5 |
| 20260902145155 | 66 | 117 | 1.0 | 2.0 | 0.00 | 0.02 | 0.02 | 94 | 1024.5 |
| 20260902144652 | 66 | 93 | 0.0 | 2.0 | 0.00 | 0.02 | 0.02 | 94 | 1024.3 |
| 20260902144148 | 66 | 108 | 0.0 | 1.0 | 0.00 | 0.02 | 0.02 | 94 | 1024.4 |
| 20260902143648 | 65 | 119 | 0.0 | 2.0 | 0.00 | 0.02 | 0.02 | 95 | 1024.3 |
| 20260902143143 | 65 | 103 | 0.0 | 2.0 | 0.00 | 0.02 | 0.02 | 95 | 1024.3 |
| 20260902142638 | 65 | 108 | 1.0 | 2.0 | 0.00 | 0.02 | 0.02 | 96 | 1024.2 |
| 20260902142134 | 64 | 111 | 1.0 | 1.0 | 0.00 | 0.02 | 0.02 | 96 | 1024.1 |
| 20260902141633 | 64 | 122 | 1.0 | 3.0 | 0.00 | 0.02 | 0.02 | 96 | 1024.3 |
| 20260902141129 | 64 | 116 | 0.0 | 1.0 | 0.00 | 0.02 | 0.02 | 96 | 1024.3 |
| 20260902140624 | 63 | 121 | 1.0 | 2.0 | 0.00 | 0.02 | 0.02 | 96 | 1024.5 |
| 20260902140119 | 63 | 284 | 1.0 | 2.0 | 0.00 | 0.02 | 0.02 | 96 | 1024.3 |
| 20260902135619 | 63 | 112 | 0.0 | 2.0 | 0.00 | 0.02 | 0.02 | 97 | 1024.6 |
| 20260902135114 | 63 | 138 | 2.0 | 3.0 | 0.00 | 0.02 | 0.02 | 97 | 1024.2 |
| 20260902134609 | 63 | 116 | 1.0 | 1.0 | 0.00 | 0.02 | 0.02 | 97 | 1024.2 |
| 20260902134104 | 63 | 103 | 1.0 | 2.0 | 0.00 | 0.02 | 0.02 | 97 | 1024.2 |
| 20260902133558 | 63 | 109 | 1.0 | 1.0 | 0.00 | 0.02 | 0.02 | 97 | 1024.3 |
| 20260902133059 | 62 | 112 | 1.0 | 2.0 | 0.00 | 0.02 | 0.02 | 97 | 1023.9 |
| 20260902132554 | 62 | 118 | 0.0 | 1.0 | 0.00 | 0.02 | 0.02 | 97 | 1023.9 |
| 20260902132049 | 62 | 110 | 1.0 | 2.0 | 0.00 | 0.02 | 0.02 | 97 | 1024.1 |
| 20260902131546 | 62 | 109 | 0.0 | 1.0 | 0.00 | 0.02 | 0.02 | 97 | 1024.0 |
| 20260902131046 | 62 | 114 | 0.0 | 1.0 | 0.00 | 0.02 | 0.02 | 97 | 1023.8 |
| 20260902130542 | 62 | 117 | 1.0 | 1.0 | 0.00 | 0.02 | 0.02 | 97 | 1023.8 |
| 20260902130037 | 61 | 138 | 1.0 | 2.0 | 0.00 | 0.02 | 0.02 | 97 | 1024.1 |
| 20260902125533 | 61 | 112 | 0.0 | 1.0 | 0.00 | 0.02 | 0.02 | 97 | 1024.0 |
| 20260902125028 | 61 | 115 | 0.0 | 1.0 | 0.00 | 0.02 | 0.02 | 97 | 1024.0 |
| 20260902124524 | 61 | 116 | 1.0 | 1.0 | 0.00 | 0.02 | 0.02 | 97 | 1024.1 |
| 20260902124019 | 61 | 92 | 0.0 | 1.0 | 0.00 | 0.02 | 0.02 | 97 | 1024.1 |
| 20260902123515 | 61 | 111 | 1.0 | 1.0 | 0.00 | 0.02 | 0.02 | 97 | 1023.9 |
| 20260902123014 | 61 | 111 | 0.0 | 1.0 | 0.00 | 0.02 | 0.02 | 97 | 1023.9 |
| 20260902122509 | 61 | 116 | 0.0 | 2.0 | 0.00 | 0.02 | 0.02 | 97 | 1023.8 |
| 20260902122004 | 61 | 121 | 1.0 | 1.0 | 0.00 | 0.02 | 0.02 | 97 | 1023.8 |
| 20260902121459 | 61 | 137 | 0.0 | 2.0 | 0.00 | 0.02 | 0.02 | 97 | 1023.8 |
| 20260902120954 | 61 | 126 | 1.0 | 2.0 | 0.00 | 0.02 | 0.02 | 97 | 1023.6 |
| 20260902120451 | 61 | 123 | 0.0 | 2.0 | 0.00 | 0.02 | 0.02 | 97 | 1023.6 |
| 20260902115950 | 60 | 114 | 0.0 | 1.0 | 0.00 | 0.02 | 0.02 | 97 | 1023.8 |
| 20260902115446 | 61 | 110 | 0.0 | 2.0 | 0.00 | 0.02 | 0.02 | 97 | 1023.8 |
| 20260902114942 | 61 | 111 | 0.0 | 2.0 | 0.00 | 0.02 | 0.02 | 97 | 1023.6 |
| 20260902114438 | 61 | 111 | 0.0 | 3.0 | 0.00 | 0.02 | 0.02 | 97 | 1023.6 |
| 20260902113933 | 61 | 121 | 0.0 | 1.0 | 0.00 | 0.02 | 0.02 | 97 | 1023.8 |
| 20260902113429 | 61 | 125 | 1.0 | 1.0 | 0.00 | 0.02 | 0.02 | 97 | 1023.8 |
| 20260902112928 | 61 | 101 | 1.0 | 1.0 | 0.00 | 0.02 | 0.02 | 97 | 1024.2 |
| 20260902112424 | 61 | 108 | 1.0 | 2.0 | 0.00 | 0.02 | 0.02 | 97 | 1023.9 |
| 20260902111920 | 61 | 113 | 1.0 | 2.0 | 0.00 | 0.02 | 0.02 | 97 | 1024.0 |
| 20260902111417 | 61 | 122 | 1.0 | 1.0 | 0.00 | 0.02 | 0.02 | 97 | 1023.5 |
| 20260902110912 | 61 | 124 | 1.0 | 2.0 | 0.00 | 0.02 | 0.02 | 97 | 1023.6 |
| 20260902110407 | 61 | 120 | 1.0 | 1.0 | 0.00 | 0.02 | 0.02 | 97 | 1023.9 |
| 20260902105902 | 61 | 126 | 0.0 | 1.0 | 0.00 | 0.02 | 0.02 | 97 | 1023.8 |
| 20260902105356 | 61 | 110 | 0.0 | 0.0 | 0.00 | 0.02 | 0.02 | 97 | 1023.5 |
| 20260902104851 | 61 | 102 | 0.0 | 1.0 | 0.07 | 0.02 | 0.02 | 97 | 1023.6 |
| 20260902104348 | 61 | 108 | 0.0 | 1.0 | 0.07 | 0.02 | 0.02 | 97 | 1023.6 |
| 20260902103847 | 61 | 108 | 0.0 | 1.0 | 0.00 | 0.01 | 0.01 | 97 | 1023.8 |
| 20260902103342 | 61 | 111 | 0.0 | 2.0 | 0.00 | 0.01 | 0.01 | 97 | 1023.6 |
| 20260902102837 | 61 | 100 | 0.0 | 1.0 | 0.00 | 0.01 | 0.01 | 97 | 1023.4 |
| 20260902102336 | 61 | 134 | 1.0 | 2.0 | 0.00 | 0.01 | 0.01 | 97 | 1023.1 |
| 20260902101830 | 61 | 114 | 1.0 | 2.0 | 0.00 | 0.01 | 0.01 | 97 | 1023.2 |
| 20260902101324 | 61 | 121 | 1.0 | 2.0 | 0.00 | 0.01 | 0.01 | 97 | 1023.3 |
| 20260902100824 | 61 | 99 | 1.0 | 2.0 | 0.00 | 0.01 | 0.01 | 97 | 1023.2 |
| 20260902100318 | 61 | 114 | 1.0 | 1.0 | 0.00 | 0.01 | 0.01 | 97 | 1023.3 |
| 20260902095813 | 61 | 117 | 1.0 | 1.0 | 0.00 | 0.01 | 0.01 | 97 | 1023.0 |
| 20260902095308 | 61 | 115 | 1.0 | 2.0 | 0.00 | 0.01 | 0.01 | 97 | 1023.1 |
| 20260902094802 | 62 | 119 | 1.0 | 2.0 | 0.00 | 0.01 | 0.01 | 97 | 1023.1 |
| 20260902094259 | 62 | 115 | 1.0 | 1.0 | 0.00 | 0.01 | 0.01 | 97 | 1023.1 |
| 20260902093758 | 62 | 109 | 1.0 | 2.0 | 0.00 | 0.01 | 0.01 | 97 | 1023.1 |
| 20260902093253 | 62 | 110 | 0.0 | 1.0 | 0.00 | 0.01 | 0.01 | 97 | 1022.9 |
| 20260902092752 | 62 | 111 | 1.0 | 1.0 | 0.00 | 0.01 | 0.01 | 97 | 1023.1 |
| 20260902092248 | 62 | 100 | 0.0 | 1.0 | 0.00 | 0.01 | 0.01 | 97 | 1023.2 |
| 20260902091747 | 62 | 117 | 0.0 | 1.0 | 0.00 | 0.01 | 0.01 | 97 | 1023.1 |
| 20260902091244 | 62 | 111 | 1.0 | 1.0 | 0.00 | 0.01 | 0.01 | 97 | 1023.2 |
| 20260902090740 | 62 | 116 | 0.0 | 1.0 | 0.00 | 0.01 | 0.01 | 97 | 1023.1 |
| 20260902090239 | 62 | 109 | 0.0 | 0.0 | 0.00 | 0.01 | 0.01 | 97 | 1023.1 |
| 20260902085733 | 62 | 108 | 0.0 | 2.0 | 0.00 | 0.01 | 0.01 | 97 | 1022.9 |
| 20260902085229 | 62 | 103 | 0.0 | 2.0 | 0.00 | 0.01 | 0.01 | 97 | 1022.9 |
| 20260902084724 | 62 | 113 | 0.0 | 1.0 | 0.00 | 0.01 | 0.01 | 97 | 1022.7 |
| 20260902084221 | 62 | 107 | 0.0 | 1.0 | 0.00 | 0.01 | 0.01 | 97 | 1022.6 |
| 20260902083720 | 62 | 123 | 1.0 | 2.0 | 0.00 | 0.01 | 0.01 | 97 | 1022.6 |
| 20260902083220 | 62 | 126 | 1.0 | 1.0 | 0.00 | 0.01 | 0.01 | 97 | 1022.5 |
| 20260902082716 | 62 | 130 | 1.0 | 2.0 | 0.07 | 0.01 | 0.01 | 97 | 1022.6 |
| 20260902082212 | 62 | 109 | 2.0 | 2.0 | 0.07 | 0.01 | 0.01 | 97 | 1022.4 |
| 20260902081708 | 62 | 118 | 0.0 | 1.0 | 0.00 | 0.00 | 0.00 | 97 | 1022.4 |
| 20260902081203 | 62 | 106 | 0.0 | 1.0 | 0.00 | 0.00 | 0.00 | 97 | 1022.5 |
| 20260902080658 | 62 | 110 | 0.0 | 1.0 | 0.00 | 0.00 | 0.00 | 97 | 1022.2 |
| 20260902080155 | 62 | 111 | 0.0 | 1.0 | 0.00 | 0.00 | 0.00 | 97 | 1022.2 |
| 20260902075655 | 62 | 109 | 0.0 | 2.0 | 0.00 | 0.00 | 0.00 | 97 | 1022.3 |
| 20260902075150 | 62 | 121 | 1.0 | 2.0 | 0.00 | 0.00 | 0.00 | 97 | 1022.0 |
| 20260902074645 | 62 | 113 | 1.0 | 1.0 | 0.00 | 0.00 | 0.00 | 97 | 1022.1 |
| 20260902074141 | 62 | 117 | 1.0 | 1.0 | 0.00 | 0.00 | 0.00 | 97 | 1022.3 |
| 20260902073636 | 62 | 108 | 0.0 | 1.0 | 0.00 | 0.00 | 0.00 | 97 | 1022.2 |
| 20260902073132 | 62 | 110 | 1.0 | 1.0 | 0.00 | 0.00 | 0.00 | 97 | 1022.2 |
| 20260902072628 | 62 | 109 | 0.0 | 1.0 | 0.00 | 0.00 | 0.00 | 97 | 1022.0 |
| 20260902072124 | 62 | 108 | 0.0 | 1.0 | 0.00 | 0.00 | 0.00 | 97 | 1022.2 |
| 20260902071619 | 62 | 107 | 0.0 | 1.0 | 0.00 | 0.00 | 0.00 | 97 | 1022.1 |
| 20260902071115 | 62 | 113 | 0.0 | 0.0 | 0.00 | 0.00 | 0.00 | 97 | 1021.9 |
| 20260902070610 | 62 | 113 | 0.0 | 0.0 | 0.00 | 0.00 | 0.00 | 97 | 1021.9 |
| 20260902070105 | 62 | 108 | 0.0 | 1.0 | 0.00 | 0.00 | 0.00 | 97 | 1021.8 |
| 20260902065558 | 62 | 113 | 0.0 | 1.0 | 0.00 | 0.00 | 0.00 | 97 | 1022.0 |
| 20260902065054 | 62 | 108 | 0.0 | 1.0 | 0.00 | 0.00 | 0.00 | 97 | 1022.1 |
| 20260902064550 | 62 | 111 | 0.0 | 1.0 | 0.00 | 0.00 | 0.00 | 97 | 1022.2 |
| 20260902064045 | 62 | 105 | 0.0 | 1.0 | 0.00 | 0.00 | 0.00 | 97 | 1022.0 |
| 20260902063545 | 62 | 105 | 0.0 | 0.0 | 0.00 | 0.00 | 0.00 | 97 | 1022.2 |
| 20260902063040 | 62 | 103 | 0.0 | 1.0 | 0.00 | 0.00 | 0.00 | 97 | 1022.0 |
| 20260902062539 | 62 | 153 | 1.0 | 1.0 | 0.00 | 0.00 | 0.00 | 97 | 1022.3 |
| 20260902062035 | 62 | 108 | 0.0 | 2.0 | 0.00 | 0.00 | 0.00 | 97 | 1022.3 |
| 20260902061534 | 62 | 103 | 0.0 | 2.0 | 0.00 | 0.00 | 0.00 | 97 | 1022.2 |
| 20260902061030 | 62 | 109 | 1.0 | 1.0 | 0.00 | 0.00 | 0.00 | 97 | 1022.1 |
| 20260902060526 | 62 | 116 | 1.0 | 2.0 | 0.00 | 0.00 | 0.00 | 97 | 1022.2 |
| 20260902060022 | 62 | 120 | 0.0 | 1.0 | 0.00 | 0.00 | 0.00 | 97 | 1022.3 |
| 20260902055518 | 62 | 114 | 0.0 | 1.0 | 0.00 | 0.00 | 0.00 | 97 | 1022.5 |
| 20260902055014 | 62 | 109 | 0.0 | 1.0 | 0.00 | 0.00 | 0.00 | 96 | 1022.5 |
| 20260902054513 | 62 | 101 | 0.0 | 1.0 | 0.00 | 0.00 | 0.00 | 97 | 1022.4 |
| 20260902054009 | 62 | 109 | 0.0 | 1.0 | 0.00 | 0.00 | 0.00 | 96 | 1022.4 |
| 20260902053504 | 62 | 103 | 0.0 | 1.0 | 0.00 | 0.00 | 0.00 | 96 | 1022.5 |
| 20260902053004 | 62 | 117 | 1.0 | 1.0 | 0.00 | 0.00 | 0.00 | 96 | 1022.2 |
| 20260902052458 | 62 | 108 | 0.0 | 1.0 | 0.00 | 0.00 | 0.00 | 96 | 1022.2 |
| 20260902051954 | 62 | 128 | 1.0 | 1.0 | 0.00 | 0.00 | 0.00 | 96 | 1022.2 |
| 20260902051453 | 62 | 102 | 0.0 | 0.0 | 0.00 | 0.00 | 0.00 | 96 | 1022.4 |
| 20260902050952 | 62 | 106 | 0.0 | 0.0 | 0.00 | 0.00 | 0.00 | 96 | 1022.3 |
| 20260902050447 | 62 | 130 | 1.0 | 1.0 | 0.00 | 0.00 | 0.00 | 96 | 1022.4 |